Stations météo

réclame
Mon MeteoGroup
Chievres, Belgique (6432): Température de l'air & dewpoint: 17.09.2017 23:00:00 - 23.09.2017 23:00:00 (CEST)Chievres, Belgique (6432): Vitesse du vent & gusts: 17.09.2017 23:00:00 - 23.09.2017 23:00:00 (CEST)Chievres, Belgique (6432): Direction du vent: 17.09.2017 23:00:00 - 23.09.2017 23:00:00 (CEST)Chievres, Belgique (6432): reduced air pressure: 17.09.2017 23:00:00 - 23.09.2017 23:00:00 (CEST)Chievres, Belgique (6432): visibility: 17.09.2017 23:00:00 - 23.09.2017 23:00:00 (CEST)
Date & Time tt [°C] td [°C] ff [km/h] ff [knt] fx [km/h] fx [knt] dd ppp [hPa] vv [km]
23.09.2017 23:00:00 9,4 5,8 4 2 - - N 1022,7 20
23.09.2017 22:00:00 10,8 6,1 11 6 14 8 E 1022,8 20
23.09.2017 21:00:00 12,2 7,2 7 4 14 8 E 1022,8 20
23.09.2017 20:00:00 14,3 7,7 11 6 - - E 1022,3 20
23.09.2017 19:00:00 16,2 7,2 7 4 14 8 ENE 1022,5 20
23.09.2017 18:00:00 18,0 6,0 11 6 18 10 E 1022,2 20
23.09.2017 17:00:00 18,6 7,7 11 6 - - ENE 1022,5 19
23.09.2017 16:00:00 19,2 8,3 7 4 18 10 ENE 1022,8 20
23.09.2017 15:00:00 18,2 8,3 7 4 18 10 E 1023,5 20
23.09.2017 14:00:00 17,7 9,5 11 6 - - ENE 1023,8 20
23.09.2017 13:00:00 17,5 9,2 11 6 14 8 ENE 1024,0 18
23.09.2017 12:00:00 16,4 8,7 7 4 14 8 E 1024,4 19
23.09.2017 11:00:00 14,7 11,5 4 2 - - N 1024,5 6
23.09.2017 10:00:00 10,6 9,6 4 2 4 2 - 1024,7 3,5
23.09.2017 09:00:00 8,6 7,8 2 1 4 2 - 1024,7 2,9
23.09.2017 08:00:00 7,6 6,7 2 1 - - - 1024,7 0,1
23.09.2017 07:00:00 7,4 6,6 4 2 7 4 N 1024,4 0,1
23.09.2017 06:00:00 7,4 6,5 4 2 4 2 N 1024,5 0,1
23.09.2017 05:00:00 6,9 6,0 2 1 - - - 1024,5 -
23.09.2017 04:00:00 6,8 5,8 4 2 4 2 N 1024,7 -
23.09.2017 03:00:00 7,3 6,3 4 2 4 2 N 1024,5 0,2
23.09.2017 02:00:00 8,3 7,5 4 2 - - N 1024,5 0,1
23.09.2017 01:00:00 9,3 8,3 2 1 4 2 - 1024,2 1,9
23.09.2017 00:00:00 10,3 9,4 4 2 0 0 N 1024,2 1,7
22.09.2017 23:00:00 11,1 10,0 2 1 - - - 1024,2 4,5
22.09.2017 22:00:00 12,4 10,0 4 2 11 6 N 1023,7 14
22.09.2017 21:00:00 13,3 10,3 7 4 11 6 N 1023,3 17
22.09.2017 20:00:00 14,5 10,4 9 5 - - N 1022,6 10
22.09.2017 19:00:00 17,0 10,4 7 4 11 6 N 1022,0 20
22.09.2017 18:00:00 18,6 9,6 11 6 18 10 WNW 1021,6 20
22.09.2017 17:00:00 18,8 9,4 7 4 - - W 1021,5 18
22.09.2017 16:00:00 18,8 11,2 7 4 14 8 SSW 1021,5 19
22.09.2017 15:00:00 17,2 11,3 7 4 11 6 W 1021,6 19
22.09.2017 14:00:00 16,0 12,8 5 3 - - WSW 1021,7 8
22.09.2017 13:00:00 14,6 12,3 4 2 7 4 N 1021,6 10
22.09.2017 12:00:00 13,7 11,5 4 2 7 4 N 1021,6 10
22.09.2017 11:00:00 13,2 11,0 4 2 - - N 1021,2 8
22.09.2017 10:00:00 12,1 10,1 4 2 7 4 N 1020,8 10
22.09.2017 09:00:00 11,0 9,5 4 2 7 4 N 1020,6 7
22.09.2017 08:00:00 9,8 8,4 7 4 - - S 1020,2 8
22.09.2017 07:00:00 9,5 8,1 4 2 7 4 N 1019,8 9
22.09.2017 06:00:00 9,1 7,9 4 2 4 2 - 1019,7 7
22.09.2017 05:00:00 8,5 7,2 4 2 - - N 1019,7 7
22.09.2017 04:00:00 8,9 7,2 4 2 4 2 N 1019,7 16
22.09.2017 03:00:00 9,6 7,9 4 2 4 2 N 1019,7 18
22.09.2017 02:00:00 10,3 8,1 4 2 - - N 1019,6 19
22.09.2017 01:00:00 11,3 8,6 4 2 7 4 N 1019,3 20
22.09.2017 00:00:00 11,2 8,4 4 2 7 4 N 1019,5 20
21.09.2017 23:00:00 12,0 8,6 4 2 - - N 1019,5 20
21.09.2017 22:00:00 11,7 8,9 4 2 7 4 N 1019,3 20
21.09.2017 21:00:00 13,8 8,9 7 4 7 4 SSE 1019,2 20
21.09.2017 20:00:00 14,3 9,2 4 2 - - N 1019,0 20
21.09.2017 19:00:00 16,3 9,3 7 4 18 10 S 1018,5 20
21.09.2017 18:00:00 18,2 7,5 14 8 22 12 S 1018,2 20
21.09.2017 17:00:00 18,7 8,4 14 8 - - S 1018,3 20
21.09.2017 16:00:00 18,8 8,0 11 6 22 12 S 1018,5 20
21.09.2017 15:00:00 19,5 8,4 14 8 25 14 S 1018,7 19
21.09.2017 14:00:00 18,7 7,9 14 8 - - S 1019,2 20
21.09.2017 13:00:00 18,2 7,9 18 10 25 14 S 1019,7 20
21.09.2017 12:00:00 17,1 8,1 14 8 22 12 S 1020,0 20
21.09.2017 11:00:00 14,8 8,0 14 8 - - S 1020,2 20
21.09.2017 10:00:00 13,1 7,8 11 6 18 10 S 1020,2 20
21.09.2017 09:00:00 11,0 7,0 11 6 18 10 S 1020,2 20
21.09.2017 08:00:00 9,5 6,8 11 6 - - SSE 1020,2 20
21.09.2017 07:00:00 9,4 6,8 7 4 14 8 SSE 1020,1 20
21.09.2017 06:00:00 9,8 7,2 7 4 14 8 SSE 1020,0 20
21.09.2017 05:00:00 10,0 7,4 9 5 - - S 1020,2 10
21.09.2017 04:00:00 10,3 7,5 11 6 14 8 SSE 1020,5 20
21.09.2017 03:00:00 10,5 7,6 7 4 14 8 S 1020,7 20
21.09.2017 02:00:00 10,8 7,7 11 6 - - S 1020,7 20
21.09.2017 01:00:00 11,2 7,9 11 6 14 8 S 1020,7 20
21.09.2017 00:00:00 11,6 8,1 11 6 14 8 S 1020,7 20
20.09.2017 23:00:00 11,8 8,6 9 5 - - SSE 1020,8 10
20.09.2017 22:00:00 12,4 9,0 7 4 11 6 S 1020,7 20
20.09.2017 21:00:00 14,1 9,2 7 4 11 6 S 1020,7 20
20.09.2017 20:00:00 14,0 10,1 7 4 - - S 1020,7 20
20.09.2017 19:00:00 15,9 9,3 7 4 14 8 SSW 1020,6 20
20.09.2017 18:00:00 16,7 8,8 11 6 22 12 SSW 1020,7 20
20.09.2017 17:00:00 16,7 8,0 14 8 - - SW 1021,0 20
20.09.2017 16:00:00 16,8 8,0 14 8 25 14 SSW 1021,2 20
20.09.2017 15:00:00 16,7 9,3 14 8 22 12 SW 1021,3 20
20.09.2017 14:00:00 16,2 9,2 11 6 - - SW 1021,7 20
20.09.2017 13:00:00 15,5 9,7 11 6 22 12 SW 1021,8 20
20.09.2017 12:00:00 14,7 10,2 14 8 22 12 SW 1022,2 20
20.09.2017 11:00:00 13,3 9,7 11 6 - - SW 1022,2 18
20.09.2017 10:00:00 11,5 9,1 11 6 18 10 SW 1022,2 10
20.09.2017 09:00:00 9,7 7,7 7 4 14 8 S 1022,2 9
20.09.2017 08:00:00 8,1 6,9 7 4 - - SSW 1022,2 5
20.09.2017 07:00:00 7,3 6,3 7 4 11 6 SSW 1022,0 5
20.09.2017 06:00:00 7,4 6,3 8 4 11 6 SSW 1022,0 4,5
20.09.2017 05:00:00 8,5 7,4 7 4 - - SSW 1022,1 4,9
20.09.2017 04:00:00 10,4 8,7 7 4 14 8 SW 1022,2 7
20.09.2017 03:00:00 11,5 10,1 7 4 11 6 WSW 1022,3 6
20.09.2017 02:00:00 11,6 10,4 7 4 - - WSW 1022,5 6
20.09.2017 01:00:00 11,6 10,3 4 2 7 4 N 1022,5 12
20.09.2017 00:00:00 11,7 10,2 4 2 11 6 N 1022,7 15
19.09.2017 23:00:00 11,6 10,3 7 4 - - WSW 1022,7 16
19.09.2017 22:00:00 11,1 10,0 5 3 11 6 WSW 1022,5 10
19.09.2017 21:00:00 12,1 10,6 7 4 22 12 W 1022,2 15
19.09.2017 20:00:00 13,8 10,6 18 10 - - WNW 1021,6 20
19.09.2017 19:00:00 15,3 10,4 7 4 22 12 NW 1020,8 20
19.09.2017 18:00:00 15,8 8,8 14 8 22 12 NW 1020,3 20
19.09.2017 17:00:00 16,8 9,3 11 6 - - WNW 1020,2 20
19.09.2017 16:00:00 16,1 9,4 11 6 22 12 NW 1020,2 20
19.09.2017 15:00:00 16,1 8,3 11 6 22 12 WNW 1019,8 10
19.09.2017 14:00:00 16,1 8,8 11 6 - - NNW 1019,8 20
19.09.2017 13:00:00 14,6 9,8 11 6 22 12 NW 1020,1 20
19.09.2017 12:00:00 13,7 10,2 11 6 22 12 NW 1019,7 20
19.09.2017 11:00:00 12,6 10,0 11 6 - - WNW 1019,6 20
19.09.2017 10:00:00 11,3 9,6 7 4 11 6 W 1018,7 19
19.09.2017 09:00:00 10,2 9,4 9 5 11 6 WSW 1018,0 7
19.09.2017 08:00:00 10,0 9,1 11 6 - - W 1018,0 8
19.09.2017 07:00:00 9,6 8,8 4 2 11 6 N 1017,7 6
19.09.2017 06:00:00 9,6 8,8 7 4 11 6 WSW 1017,3 9
19.09.2017 05:00:00 9,8 9,0 8 4 - - WSW 1017,2 10
19.09.2017 04:00:00 10,0 9,2 8 4 14 8 WSW 1017,3 10
19.09.2017 03:00:00 9,8 8,9 7 4 14 8 WSW 1017,3 15
19.09.2017 02:00:00 9,3 8,7 7 4 - - WSW 1017,3 8
19.09.2017 01:00:00 9,9 9,2 11 6 14 8 WSW 1017,1 6
19.09.2017 00:00:00 10,1 9,3 8 4 14 8 WSW 1017,2 8
18.09.2017 23:00:00 11,0 9,6 11 6 - - W 1017,2 10
18.09.2017 22:00:00 11,1 9,9 7 4 14 8 WSW 1017,2 15
18.09.2017 21:00:00 11,3 9,9 11 6 14 8 SW 1017,0 20
18.09.2017 20:00:00 12,0 10,1 7 4 - - SW 1016,5 20
18.09.2017 19:00:00 12,6 9,7 11 6 22 12 W 1016,1 20
18.09.2017 18:00:00 12,8 9,6 14 8 25 14 W 1015,7 20
18.09.2017 17:00:00 13,0 9,7 14 8 - - W 1015,7 20
18.09.2017 16:00:00 12,3 8,2 11 6 22 12 W 1015,7 20
18.09.2017 15:00:00 11,9 9,6 18 10 32 18 W 1015,6 10
18.09.2017 14:00:00 11,5 10,0 11 6 - - NW 1015,2 10
18.09.2017 13:00:00 15,3 9,1 21 11 22 12 WSW 1015,0 10
18.09.2017 12:00:00 13,6 9,7 14 8 25 14 WSW 1015,2 20
18.09.2017 11:00:00 12,8 10,0 11 6 - - WSW 1015,3 20
18.09.2017 10:00:00 11,2 9,0 13 7 18 10 SSW 1015,3 10
18.09.2017 09:00:00 9,7 8,6 11 6 14 8 SSW 1015,2 6
18.09.2017 08:00:00 9,4 8,5 9 5 - - SSW 1015,1 6
18.09.2017 07:00:00 9,3 8,5 7 4 14 8 SSW 1014,7 6
18.09.2017 06:00:00 9,3 8,3 9 5 14 8 SSW 1014,5 7
18.09.2017 05:00:00 9,3 8,5 7 4 - - SW 1014,3 5
18.09.2017 04:00:00 9,6 8,6 9 5 14 8 SW 1014,3 8
18.09.2017 03:00:00 9,4 8,4 11 6 14 8 SSW 1014,5 9
18.09.2017 02:00:00 9,3 8,3 9 5 - - SSW 1014,6 8
18.09.2017 01:00:00 8,8 7,8 9 5 11 6 SSW 1014,6 10
18.09.2017 00:00:00 9,7 8,6 7 4 11 6 SSW 1014,7 13
17.09.2017 23:00:00 10,1 9,2 7 4 - - S 1014,5 9

tt = Température de l'air
td = dewpoint
ff = Vitesse du vent
fx = gusts
dd = Direction du vent
ppp = reduced air pressure
vv = visibility

stations d'obs. à proximité